Location: Home
(42.5358°N, 72.7383°W)
Time: 15:02:45
(UTC-05:00)

deb Explorer IX - Pass Details

Date: 05 December 2021
Orbit: 544 x 1082 km, 38.8° (Epoch: 16 January)

Event Time Altitude Azimuth Distance (km) Brightness Sun altitude
Rises 09:39:18 0° 237° (WSW) 3,155 ? 19.2°
Reaches altitude 10° 09:42:01 10° 228° (SW) 2,141 ? 19.4°
Maximum altitude 09:46:29 35° 164° (SSE) 1,016 ? 19.8°
Drops below altitude 10° 09:50:28 10° 98° (E) 1,904 ? 20.1°
Sets 09:52:46 0° 89° (E) 2,758 ? 20.3°
